(89635) = 2001 XK213

Discovered at Socorro on 2001-12-11 by LINEAR.

Orbit

Orbit type: Main Belt

Note: WebGL enabled browser required.

epoch2024-03-31.0
epoch JD2460400.5
perihelion date2021-10-14.34162
perihelion JD2459501.84162
argument of perihelion (°)179.85070
ascending node (°)226.58315
inclination (°)5.74466
eccentricity0.1782614
perihelion distance (AU)2.0911412
Tisserand w.r.t. Jupiter3.4
ΔV w.r.t. Earth (km/sec)9.2
semimajor axis (AU)2.5447765
mean anomaly (°)218.18455
mean daily motion (°/day)0.24278920
aphelion distance (AU)2.998
period (years)4.06
P-vector [x]0.68918204
P-vector [y]0.66469292
P-vector [z]0.28846394
Q-vector [x]-0.72093126
Q-vector [y]0.66896951
Q-vector [z]0.18093623
absolute magnitude15.18
phase slope0.15
uncertainty0
referenceMPEC 2024-D06
observations used1081
oppositions16
arc length (days)9032
first opposition used1999
last opposition used2024
residual rms (arc-secs)0.66
perturbers coarse indicatorM-v
perturbers precise indicator003Ek
first observation date used1999-05-18.0
last observation date used2024-02-08.0
computer namePan
JD of orbit computation2456819.438114
perihelion JD uncertainty (days)8.5613E-05
argument of perihelion uncertainty (°)6.9386E-05
ascending node uncertainty (°)6.6329E-05
inclination uncertainty (°)7.8149E-06
eccentricity uncertainty 1.0983E-07
perihelion distance uncertainty (AU)2.8208E-07
Minimum Orbit Intersection Distances (in AU)
for orbit epoch: 2460400.5, reference: E2024-D06
Mercury1.7729
Venus1.36873
Earth1.10099
Mars0.60288
Jupiter2.38588
Saturn6.71116
Uranus15.63
Neptune27.6192

Observations

1108 total observations over interval: 1999 05 18.21837 – 2024 02 08.658461
These data are available for download (format description).

Date (UT) J2000 RA J2000 Dec Magn Location Ref
1999 05 18.21837 13 59 29.12 -13 13 07.6 19.6 V 691 – Steward Observatory, Kitt Peak-Spacewatch MPS 110684
1999 05 18.23968 13 59 28.24 -13 13 00.7 19.4 V 691 – Steward Observatory, Kitt Peak-Spacewatch MPS 110684
1999 05 18.26131 13 59 27.31 -13 12 53.6 19.6 V 691 – Steward Observatory, Kitt Peak-Spacewatch MPS 110684
2001 11 17.43075 07 53 43.33 +14 48 36.9 18.8   704 – Lincoln Laboratory ETS, New Mexico MPS 47008
2001 11 17.44510 07 53 43.55 +14 48 32.4 19.3   704 – Lincoln Laboratory ETS, New Mexico MPS 47008
2001 11 17.45942 07 53 43.77 +14 48 27.6 19.2   704 – Lincoln Laboratory ETS, New Mexico MPS 47008
2001 11 17.47375 07 53 44.02 +14 48 23.5 19.3   704 – Lincoln Laboratory ETS, New Mexico MPS 47008
2001 12 11.37255 07 51 29.99 +13 11 54.6 18.2   704 – Lincoln Laboratory ETS, New Mexico MPS 45387
2001 12 11.38745 07 51 29.50 +13 11 52.1 18.8   704 – Lincoln Laboratory ETS, New Mexico MPS 45387
2001 12 11.41726 07 51 28.58 +13 11 47.6 18.6   704 – Lincoln Laboratory ETS, New Mexico MPS 45387
2001 12 11.43218 07 51 28.10 +13 11 44.8 18.3   704 – Lincoln Laboratory ETS, New Mexico MPS 45387
2001 12 18.38912 07 47 15.37 +12 56 03.7 18.5   704 – Lincoln Laboratory ETS, New Mexico MPS 45387
2001 12 18.40440 07 47 14.67 +12 56 02.0 18.5   704 – Lincoln Laboratory ETS, New Mexico MPS 45387
2001 12 18.42028 07 47 13.98 +12 55 59.9 18.7   704 – Lincoln Laboratory ETS, New Mexico MPS 45387
2001 12 26.37439 07 40 49.81 +12 45 57.0 19.0   608 – Haleakala-AMOS MPS 47008
2001 12 26.38526 07 40 49.18 +12 45 56.9 19.2   608 – Haleakala-AMOS MPS 47008
2001 12 26.39579 07 40 48.63 +12 45 56.2 19.3   608 – Haleakala-AMOS MPS 47008
2002 01 05.33118 07 31 13.04 +12 44 49.3 19.2   608 – Haleakala-AMOS MPS 47008
2002 01 05.34167 07 31 12.39 +12 44 49.7 19.6   608 – Haleakala-AMOS MPS 47008
2002 01 05.35234 07 31 11.71 +12 44 50.0 19.1   608 – Haleakala-AMOS MPS 47008
2002 01 09.31608 07 27 07.83 +12 47 36.6 18.2   704 – Lincoln Laboratory ETS, New Mexico MPS 47008
2002 01 09.33162 07 27 06.80 +12 47 37.3 18.3   704 – Lincoln Laboratory ETS, New Mexico MPS 47008
2002 01 09.34658 07 27 05.85 +12 47 38.2 18.5   704 – Lincoln Laboratory ETS, New Mexico MPS 47008
2002 01 09.36165 07 27 04.90 +12 47 39.2 18.0   704 – Lincoln Laboratory ETS, New Mexico MPS 47008
2002 01 09.37661 07 27 03.92 +12 47 39.9 18.6   704 – Lincoln Laboratory ETS, New Mexico MPS 47008
2002 01 14.30824 07 22 02.27 +12 53 27.5 18.2   704 – Lincoln Laboratory ETS, New Mexico MPS 47008
2002 01 14.32394 07 22 01.34 +12 53 29.1 18.4   704 – Lincoln Laboratory ETS, New Mexico MPS 47008
2002 01 14.34035 07 22 00.29 +12 53 30.4 18.5   704 – Lincoln Laboratory ETS, New Mexico MPS 47008
2002 01 14.35707 07 21 59.24 +12 53 31.8 18.3   704 – Lincoln Laboratory ETS, New Mexico MPS 47008
2002 01 14.37268 07 21 58.29 +12 53 33.2 18.3   704 – Lincoln Laboratory ETS, New Mexico MPS 47008
2002 01 15.29891 07 21 03.22 +12 54 54.7 19.9   608 – Haleakala-AMOS MPS 47008
2002 01 15.30934 07 21 02.56 +12 54 56.0 19.9   608 – Haleakala-AMOS MPS 47008
2002 01 15.32007 07 21 01.91 +12 54 57.2 19.4   608 – Haleakala-AMOS MPS 47008
2002 02 06.10767 07 03 42.00 +13 42 06.4 18.8   644 – Palomar Mountain/NEAT MPS 49777
2002 02 06.12905 07 03 41.31 +13 42 09.6 18.9   644 – Palomar Mountain/NEAT MPS 49777
2002 02 06.15186 07 03 40.56 +13 42 13.5 18.9   644 – Palomar Mountain/NEAT MPS 49777
2002 02 11.24355 07 01 25.65 +13 55 31.8 18.9   704 – Lincoln Laboratory ETS, New Mexico MPS 49777
2002 02 11.25935 07 01 25.28 +13 55 34.3 19.1   704 – Lincoln Laboratory ETS, New Mexico MPS 49777
2002 02 11.27378 07 01 24.98 +13 55 36.4 19.4   704 – Lincoln Laboratory ETS, New Mexico MPS 49777
2002 02 11.28836 07 01 24.66 +13 55 38.6 19.5   704 – Lincoln Laboratory ETS, New Mexico MPS 49777
2003 04 03.37262 14 15 03.89 -16 17 06.1 19.3 R 699 – Lowell Observatory-LONEOS MPS 78207
2003 04 03.38857 14 15 03.19 -16 17 02.4   699 – Lowell Observatory-LONEOS MPS 78207
2003 04 03.40458 14 15 02.44 -16 16 55.9   699 – Lowell Observatory-LONEOS MPS 78207
2003 04 03.42054 14 15 01.74 -16 16 50.6   699 – Lowell Observatory-LONEOS MPS 78207
2003 04 24.27026 13 57 42.80 -14 17 53.4 18.8 R 699 – Lowell Observatory-LONEOS MPS 78207
2003 04 24.28770 13 57 41.84 -14 17 47.3   699 – Lowell Observatory-LONEOS MPS 78207
2003 04 24.30513 13 57 40.88 -14 17 39.9   699 – Lowell Observatory-LONEOS MPS 78207
2003 04 24.32249 13 57 39.95 -14 17 34.2   699 – Lowell Observatory-LONEOS MPS 78207
2003 04 26.37354 13 55 53.12 -14 04 32.5 20.2   608 – Haleakala-AMOS MPS 78207
2003 04 26.38458 13 55 52.53 -14 04 28.3 20.0   608 – Haleakala-AMOS MPS 78207
2003 04 26.39570 13 55 51.87 -14 04 23.8 21.2   608 – Haleakala-AMOS MPS 78207
2003 05 29.17281 13 34 09.02 -11 02 46.2 20.3 V 691 – Steward Observatory, Kitt Peak-Spacewatch MPS 80014
2003 05 29.20096 13 34 08.36 -11 02 39.5 20.4 V 691 – Steward Observatory, Kitt Peak-Spacewatch MPS 80014
2003 05 29.22753 13 34 07.78 -11 02 33.1 20.2 V 691 – Steward Observatory, Kitt Peak-Spacewatch MPS 80014
2004 06 11.05118 20 13 59.52 -12 22 15.1 19.3 R 599 – Campo Imperatore-CINEOS MPS 109023
2004 06 11.06502 20 13 59.21 -12 22 12.7 18.9 R 599 – Campo Imperatore-CINEOS MPS 109023
2004 06 11.07887 20 13 58.95 -12 22 10.1 18.7 R 599 – Campo Imperatore-CINEOS MPS 109023
2004 06 16.33523 20 11 54.93 -12 12 20.4 19.6   704 – Lincoln Laboratory ETS, New Mexico MPS 109023
2004 06 16.35555 20 11 54.36 -12 12 19.2 19.4   704 – Lincoln Laboratory ETS, New Mexico MPS 109023
2004 06 16.36568 20 11 54.00 -12 12 18.1 19.6   704 – Lincoln Laboratory ETS, New Mexico MPS 109023
2004 07 14.27079 19 51 04.10 -12 07 49.6 19.2   704 – Lincoln Laboratory ETS, New Mexico MPS 110301
2004 07 14.28169 19 51 03.47 -12 07 50.5 19.5   704 – Lincoln Laboratory ETS, New Mexico MPS 110301
2004 07 14.29168 19 51 02.94 -12 07 51.3 19.6   704 – Lincoln Laboratory ETS, New Mexico MPS 110301
2004 07 14.30162 19 51 02.36 -12 07 52.2 19.4   704 – Lincoln Laboratory ETS, New Mexico MPS 110301
2004 07 14.31154 19 51 01.74 -12 07 53.1 19.4   704 – Lincoln Laboratory ETS, New Mexico MPS 110301
2004 07 16.27716 19 49 09.60 -12 10 24.7 20.0   704 – Lincoln Laboratory ETS, New Mexico MPS 110301
2004 07 16.28693 19 49 09.04 -12 10 24.8 20.2   704 – Lincoln Laboratory ETS, New Mexico MPS 110301
2004 07 16.29670 19 49 08.37 -12 10 25.8 20.1   704 – Lincoln Laboratory ETS, New Mexico MPS 110301
2004 07 16.30642 19 49 07.77 -12 10 28.1 19.8   704 – Lincoln Laboratory ETS, New Mexico MPS 110301
2004 07 18.27593 19 47 14.42 -12 13 23.8 19.2   704 – Lincoln Laboratory ETS, New Mexico MPS 110727
2004 07 18.28674 19 47 13.74 -12 13 24.6 19.5   704 – Lincoln Laboratory ETS, New Mexico MPS 110727
2004 07 18.29699 19 47 13.13 -12 13 25.4 19.7   704 – Lincoln Laboratory ETS, New Mexico MPS 110727
2004 07 18.30757 19 47 12.53 -12 13 26.9 19.6   704 – Lincoln Laboratory ETS, New Mexico MPS 110727
2004 07 18.31813 19 47 11.85 -12 13 27.0 19.5   704 – Lincoln Laboratory ETS, New Mexico MPS 110727
2004 08 08.21105 19 28 23.75 -12 59 13.4 19.9   704 – Lincoln Laboratory ETS, New Mexico MPS 111076
2004 08 08.22057 19 28 23.32 -12 59 14.9 19.6   704 – Lincoln Laboratory ETS, New Mexico MPS 111076
2004 08 08.22994 19 28 22.89 -12 59 16.9 19.4   704 – Lincoln Laboratory ETS, New Mexico MPS 111076
2004 08 12.19667 19 25 30.79 -13 09 52.7 19.4   704 – Lincoln Laboratory ETS, New Mexico MPS 111076
2004 08 12.20682 19 25 30.39 -13 09 54.1 19.5   704 – Lincoln Laboratory ETS, New Mexico MPS 111076
2004 08 12.21661 19 25 30.01 -13 09 56.2 20.0   704 – Lincoln Laboratory ETS, New Mexico MPS 111076
2005 11 06.38944 07 17 21.10 +17 19 52.7 18.9   704 – Lincoln Laboratory ETS, New Mexico MPS 150433
2005 11 06.40181 07 17 21.42 +17 19 48.9 19.4   704 – Lincoln Laboratory ETS, New Mexico MPS 150433
2005 11 06.41432 07 17 21.67 +17 19 45.7 19.4   704 – Lincoln Laboratory ETS, New Mexico MPS 150433
2005 11 06.42690 07 17 22.02 +17 19 41.7 19.2   704 – Lincoln Laboratory ETS, New Mexico MPS 150433
2005 11 06.43930 07 17 22.36 +17 19 37.8 19.2   704 – Lincoln Laboratory ETS, New Mexico MPS 150433
2005 11 30.38362 07 18 21.58 +15 32 09.6 18.5   704 – Lincoln Laboratory ETS, New Mexico MPS 153179
